Jefferson, NC

10:27 AM EDT on September 21, 2017 (GMT -0400)
Ashe County

Weather History for KGEV - January, 2008

Change the Weather History Date:

Tuesday, January 15, 2008

  Actual Average Record
Temperature  
Mean Temperature 26 °F -  
Max Temperature 30 °F 41 °F 62 °F (2007)
Min Temperature 23 °F 20 °F 6 °F (1988)
Degree Days  
Heating Degree Days 38    
Moisture  
Dew Point 10 °F    
Average Humidity 51    
Maximum Humidity 68    
Minimum Humidity 32    
Precipitation  
Precipitation 0.00 in - - ()
Sea Level Pressure  
Sea Level Pressure 29.93 in    
Wind  
Wind Speed 14 mph (WNW)    
Max Wind Speed 23 mph    
Max Gust Speed 37 mph    
Visibility 9 miles    
Events Snow    
Averages and records for this station are not official NWS values.
T = Trace of Precipitation, MM = Missing Value Source: NWS Daily Summary

Daily Weather History Graph

Daily Weather History Graph

Search for Another Location

Airport or City:

Trip Planner

Search our weather history database for the weather conditions in past years. The results will help you decide how hot, cold, wet, or windy it might be!

Date:

Astronomy

Jan. 15, 2008 Rise Set
Actual Time 7:36 AM EST 5:33 PM EST
Civil Twilight 7:08 AM EST 6:01 PM EST
Nautical Twilight 6:36 AM EST 6:33 PM EST
Astronomical Twilight 6:05 AM EST 7:04 PM EST
Moon 11:28 AM EST (1/15) 12:14 AM EST (1/15)
Length of Visible Light 10h 52m
Length of Day
9h 56m
Waxing Crescent, 49% of the Moon is Illuminated
Jan 15
Waxing Crescent
Jan 15
First Quarter
Jan 22
Full
Jan 30
Last Quarter
Feb 6
New

Hourly Weather History & Observations

Time (EST) Temp. Windchill Dew Point Humidity Pressure Visibility Wind Dir Wind Speed Gust Speed Precip Events Conditions
12:03 AM 26.6 °F 16.8 °F 14.0 °F 59% 29.91 in 10.0 mi West 10.4 mph 20.7 mph N/A   Clear
12:22 AM 26.6 °F 14.3 °F 14.0 °F 59% 29.90 in 10.0 mi WNW 16.1 mph 27.6 mph N/A   Clear
1:02 AM 24.8 °F 10.7 °F 14.0 °F 64% 29.89 in 10.0 mi West 19.6 mph 27.6 mph N/A   Clear
1:22 AM 24.8 °F 10.7 °F 12.2 °F 59% 29.89 in 10.0 mi WNW 19.6 mph 26.5 mph N/A   Clear
1:43 AM 24.8 °F 12.4 °F 12.2 °F 59% 29.88 in 10.0 mi WNW 15.0 mph 29.9 mph N/A   Clear
2:02 AM 24.8 °F 12.9 °F 12.2 °F 59% 29.88 in 10.0 mi WNW 13.8 mph 23.0 mph N/A   Clear
2:23 AM 24.8 °F 12.4 °F 12.2 °F 59% 29.88 in 10.0 mi WNW 15.0 mph 20.7 mph N/A   Clear
2:42 AM 24.8 °F 12.9 °F 12.2 °F 59% 29.88 in 10.0 mi WNW 13.8 mph 21.9 mph N/A   Clear
3:02 AM 24.8 °F 13.4 °F 12.2 °F 59% 29.88 in 10.0 mi West 12.7 mph 20.7 mph N/A   Scattered Clouds
3:22 AM 24.8 °F 14.6 °F 12.2 °F 59% 29.88 in 10.0 mi WNW 10.4 mph 24.2 mph N/A   Scattered Clouds
4:02 AM 24.8 °F 14.0 °F 12.2 °F 59% 29.87 in 10.0 mi WNW 11.5 mph 21.9 mph N/A   Mostly Cloudy
4:23 AM 24.8 °F 11.9 °F 12.2 °F 59% 29.87 in 10.0 mi West 16.1 mph 25.3 mph N/A   Mostly Cloudy
4:42 AM 24.8 °F 11.1 °F 12.2 °F 59% 29.87 in 10.0 mi WNW 18.4 mph 24.2 mph N/A   Mostly Cloudy
5:02 AM 24.8 °F 14.0 °F 12.2 °F 59% 29.88 in 10.0 mi West 11.5 mph 24.2 mph N/A   Overcast
5:22 AM 24.8 °F 16.1 °F 12.2 °F 59% 29.87 in 10.0 mi West 8.1 mph 21.9 mph N/A   Overcast
5:42 AM 24.8 °F 14.6 °F 12.2 °F 59% 29.86 in 10.0 mi WSW 10.4 mph 18.4 mph N/A Snow Light Snow
6:02 AM 24.8 °F 16.9 °F 12.2 °F 59% 29.86 in 10.0 mi West 6.9 mph 17.3 mph N/A Snow Light Snow
6:24 AM 24.8 °F 11.1 °F 12.2 °F 59% 29.86 in 10.0 mi West 18.4 mph 26.5 mph N/A   Overcast
6:42 AM 24.8 °F 10.3 °F 12.2 °F 59% 29.86 in 10.0 mi West 20.7 mph 34.5 mph N/A Snow Light Snow
7:02 AM 24.8 °F 12.9 °F 12.2 °F 59% 29.87 in 10.0 mi West 13.8 mph 25.3 mph N/A Snow Light Snow
7:23 AM 24.8 °F 11.9 °F 12.2 °F 59% 29.87 in 10.0 mi West 16.1 mph 29.9 mph N/A Snow Light Snow
7:42 AM 23.0 °F 12.4 °F 10.4 °F 59% 29.88 in 10.0 mi West 10.4 mph 26.5 mph N/A   Overcast
8:02 AM 23.0 °F 15.8 °F 8.6 °F 54% 29.87 in 10.0 mi West 5.8 mph 27.6 mph N/A   Mostly Cloudy
8:22 AM 23.0 °F 11.1 °F 8.6 °F 54% 29.88 in 10.0 mi WNW 12.7 mph 32.2 mph N/A   Mostly Cloudy
8:42 AM 23.0 °F 7.6 °F 8.6 °F 54% 29.87 in 10.0 mi WNW 21.9 mph 36.8 mph N/A   Mostly Cloudy
9:02 AM 23.0 °F 9.2 °F 10.4 °F 59% 29.88 in 5.0 mi West 17.3 mph 24.2 mph N/A Snow Light Snow
9:23 AM 23.0 °F 8.7 °F 10.4 °F 59% 29.89 in 5.0 mi WNW 18.4 mph 25.3 mph N/A Snow Light Snow
9:42 AM 23.0 °F 17.0 °F 14.0 °F 68% 29.91 in 1.2 mi WNW 4.6 mph 17.3 mph N/A Snow Light Snow
10:02 AM 23.0 °F 10.6 °F 14.0 °F 68% 29.92 in 1.2 mi West 13.8 mph 25.3 mph N/A Snow Light Snow
10:22 AM 24.8 °F 14.6 °F 14.0 °F 64% 29.93 in 3.0 mi NW 10.4 mph 32.2 mph N/A Snow Light Snow
10:42 AM 24.8 °F 10.3 °F 12.2 °F 59% 29.93 in 5.0 mi NW 20.7 mph 28.8 mph N/A Snow Light Snow
11:01 AM 24.8 °F 10.3 °F 10.4 °F 54% 29.93 in 10.0 mi WNW 20.7 mph 31.1 mph N/A   Scattered Clouds
11:22 AM 24.8 °F 11.1 °F 10.4 °F 54% 29.93 in 10.0 mi WNW 18.4 mph 31.1 mph N/A   Clear
11:41 AM 24.8 °F 11.5 °F 8.6 °F 50% 29.93 in 10.0 mi WNW 17.3 mph 27.6 mph N/A   Clear
12:02 PM 26.6 °F 16.2 °F 8.6 °F 47% 29.93 in 10.0 mi WNW 11.5 mph 17.3 mph N/A   Clear
12:22 PM 26.6 °F 17.5 °F 6.8 °F 43% 29.93 in 10.0 mi NW 9.2 mph 26.5 mph N/A   Clear
12:41 PM 28.4 °F 18.5 °F 6.8 °F 40% 29.92 in 10.0 mi NW 11.5 mph 19.6 mph N/A   Clear
1:01 PM 28.4 °F 17.0 °F 6.8 °F 40% 29.92 in 10.0 mi NW 15.0 mph 29.9 mph N/A   Clear
1:22 PM 30.2 °F 19.3 °F 6.8 °F 37% 29.91 in 10.0 mi NW 15.0 mph 21.9 mph N/A   Clear
1:41 PM 30.2 °F 18.5 °F 5.0 °F 34% 29.91 in 10.0 mi NW 17.3 mph 26.5 mph N/A   Clear
2:01 PM 30.2 °F 19.3 °F 3.2 °F 32% 29.91 in 10.0 mi NW 15.0 mph 29.9 mph N/A   Clear
2:21 PM 30.2 °F 18.1 °F 5.0 °F 34% 29.92 in 10.0 mi NNW 18.4 mph 28.8 mph N/A   Clear
2:41 PM 30.2 °F 16.8 °F 6.8 °F 37% 29.93 in 10.0 mi WNW 23.0 mph 32.2 mph N/A   Clear
3:01 PM 30.2 °F 20.8 °F 6.8 °F 37% 29.94 in 10.0 mi WNW 11.5 mph 26.5 mph N/A   Clear
3:21 PM 30.2 °F 19.8 °F 6.8 °F 37% 29.94 in 10.0 mi NW 13.8 mph 18.4 mph N/A   Clear
3:41 PM 30.2 °F 18.5 °F 6.8 °F 37% 29.95 in 10.0 mi NNW 17.3 mph 25.3 mph N/A   Clear
4:01 PM 30.2 °F 19.8 °F 6.8 °F 37% 29.96 in 10.0 mi NW 13.8 mph 20.7 mph N/A   Clear
4:21 PM 30.2 °F 21.3 °F 6.8 °F 37% 29.97 in 10.0 mi NW 10.4 mph 24.2 mph N/A   Clear
5:01 PM 28.4 °F 18.5 °F 8.6 °F 43% 29.98 in 10.0 mi WNW 11.5 mph 19.6 mph N/A   Clear
5:21 PM 28.4 °F 17.5 °F 8.6 °F 43% 29.99 in 10.0 mi WNW 13.8 mph 20.7 mph N/A   Clear
5:41 PM 28.4 °F 18.0 °F 8.6 °F 43% 30.00 in 10.0 mi WNW 12.7 mph 17.3 mph N/A   Clear
6:01 PM 28.4 °F 19.1 °F 8.6 °F 43% 30.01 in 10.0 mi WNW 10.4 mph 17.3 mph N/A   Clear
6:21 PM 28.4 °F 19.1 °F 8.6 °F 43% 30.01 in 10.0 mi WNW 10.4 mph 17.3 mph N/A   Clear
6:41 PM 28.4 °F 18.0 °F 8.6 °F 43% 30.03 in 10.0 mi WNW 12.7 mph 19.6 mph N/A   Clear
7:01 PM 26.6 °F 16.2 °F 8.6 °F 47% 30.04 in 10.0 mi WNW 11.5 mph 20.7 mph N/A   Clear
7:21 PM 26.6 °F 14.7 °F 8.6 °F 47% 30.04 in 10.0 mi WNW 15.0 mph 20.7 mph N/A   Clear
8:41 PM 26.6 °F 17.5 °F 8.6 °F 47% 30.07 in 10.0 mi NW 9.2 mph 16.1 mph N/A   Clear
9:01 PM 26.6 °F - 8.6 °F 47% 30.08 in 10.0 mi Calm Calm - N/A   Clear
9:21 PM 26.6 °F - 8.6 °F 47% 30.08 in 10.0 mi Calm Calm - N/A   Clear
9:42 PM 26.6 °F - 8.6 °F 47% 30.08 in 10.0 mi Calm Calm - N/A   Clear
10:01 PM 24.8 °F - 8.6 °F 50% 30.08 in 10.0 mi Calm Calm - N/A   Clear
10:21 PM 24.8 °F - 8.6 °F 50% 30.09 in 10.0 mi Calm Calm - N/A   Clear
10:41 PM 24.8 °F 20.5 °F 8.6 °F 50% 30.09 in 10.0 mi SW 3.5 mph - N/A   Clear
11:01 PM 24.8 °F 20.5 °F 8.6 °F 50% 30.11 in 10.0 mi West 3.5 mph - N/A   Clear
11:21 PM 24.8 °F 17.9 °F 8.6 °F 50% 30.11 in 10.0 mi West 5.8 mph - N/A   Clear
11:41 PM 24.8 °F 17.9 °F 8.6 °F 50% 30.11 in 10.0 mi West 5.8 mph - N/A   Clear